Terminal Aerodrome Forecast
Issued by NWS Raleigh/Durham, NC

Current Version | Previous Version | Text Only | Print | Product List | Glossary On
Versions: 1 2 3 4 5 6 7 8 9 10 11 12 13 14 15 16 17 18 19 20 21 22 23 24 25 26 27 28 29 30 31 32 33 34 35 36 37 38 39 40 41 42 43 44 45 46 47 48 49 50
000
FTUS42 KRAH 260246 AAB
TAFFAY
TAF AMD
KFAY 260246Z 2603/2624 06005KT P6SM FEW025 OVC035
      TEMPO 2603/2606 BKN025
     FM260600 VRB03KT 5SM BR BKN020
      TEMPO 2610/2614 3SM BR OVC010
     FM261600 24008KT P6SM FEW020 SCT035=

USA.gov is the U.S. government's official web portal to all federal, state and local government web resources and services.